User: anonymous   Login
Location: Lafig�re
(44.4503°N, 4.0357°E)
Time: 01:16:05
(UTC+00:00)
Language:

BREEZE-M R/B - Orbit

View from above orbital plane
View from above orbital plane
View from above satellite
View from above satellite

Ground track
Ground track

The orbit data is extracted from the following two-line orbital elements,

1 38344U 12026C   20334.32005380  .00002334  00000-0  55388-3 0  9990
2 38344  49.1764 202.6206 6304281 134.5461 298.6021  3.58627994107718
Epoch (UTC): 29 November 2020 07:40:52
Eccentricity: 0.6304281
inclination: 49.1764°
perigee height: 285 km
apogee height: 23016 km
right ascension of ascending node: 202.6206°
argument of perigee: 134.5461°
revolutions per day: 3.58627994
mean anomaly at epoch: 298.6021°
orbit number at epoch: 10771

The dashed part of the orbit path shows where the satellite is in the earth's shadow,  

DLR